Wind_Speed
19 19 18 15 12 10 9 9 8 7 7 7 8 8 9 8 9 9 9 8 9 8 8 8 7 7 8 7 8 8 6 6 7 7 5 3 3 5 7 9 9 9 9 7 4 3 3 3 5 8 11 12 9 7 7 5 5 6 6 4 4 5 3 4 4 3 3 5 6 5 4 3 5 6 6 6 8 11 12 13 13 14 14 14 13 14 16 15
19 19 18 15 13 11 9 9 8 7 7 7 8 8 9 8 9 9 8 9 8 8 8 8 8 9 8 8 7 5 6 8 8 7 6 4 6 9 10 10 9 8 8 4 2 1 2 3 5 9 11 11 9 8 8 6 6 6 3 4 5 3 4 4 3 4 2 2 6 6 5 5 4 5 4 4 8 9 9 11 11 15 15 13 14 14 14 13
18 19 17 15 13 11 10 9 8 7 6 7 8 8 8 8 8 8 8 8 8 8 8 8 10 10 9 8 5 4 6 8 8 8 7 8 10 12 11 9 7 7 6 3 1 1 1 3 6 8 9 9 10 9 8 8 7 5 4 5 4 3 4 4 2 3 4 1 6 7 6 7 7 5 2 3 7 6 6 7 7 13 14 12 14 14 15 15
18 18 17 15 14 12 10 9 8 7 6 6 7 7 7 8 8 8 8 8 8 8 8 10 11 12 10 8 4 4 6 6 7 7 7 11 11 11 9 8 7 7 6 4 3 3 3 4 6 6 7 8 9 10 8 8 6 4 5 4 3 2 2 4 2 3 3 1 6 8 7 9 10 8 5 3 5 6 7 6 8 13 15 14 14 14 16 18
18 18 17 15 13 12 10 9 8 7 6 6 6 6 7 7 8 8 8 8 8 8 9 10 13 13 10 9 5 4 7 4 6 5 8 11 9 8 8 7 8 8 8 7 6 4 4 5 6 5 5 6 9 10 8 8 6 4 4 3 5 1 0 6 3 2 2 4 7 7 6 8 9 10 10 6 4 6 7 7 11 14 13 13 13 13 15 15
17 18 17 15 13 11 10 9 8 7 6 6 6 6 6 7 7 8 8 8 8 9 9 11 14 13 10 10 9 4 4 3 6 4 8 8 7 8 7 8 9 10 10 9 6 4 4 5 6 5 4 6 7 6 6 9 7 5 4 1 3 3 3 6 3 2 3 6 7 6 7 9 9 11 12 12 10 9 8 9 12 12 11 11 11 13 14 14
17 18 17 15 13 11 10 9 8 7 6 6 6 5 5 6 7 8 8 8 9 9 10 12 14 13 10 11 13 10 9 10 6 5 8 6 7 8 8 9 10 11 11 8 5 4 4 3 4 3 4 6 5 4 6 9 8 5 3 4 2 3 4 4 4 5 6 7 7 7 8 7 8 10 11 13 12 10 11 11 10 10 10 11 11 13 13 13
16 17 17 15 13 11 10 9 8 7 6 6 6 5 6 6 7 8 7 8 9 9 10 12 14 12 8 7 8 12 13 10 5 6 7 6 8 8 8 9 9 11 9 8 8 6 4 4 4 1 2 6 3 4 7 9 8 5 3 5 2 4 4 5 6 7 8 9 8 8 9 9 10 12 11 11 11 10 11 11 11 11 11 10 10 11 12 13
15 16 16 15 13 11 10 9 7 7 6 6 6 6 6 6 7 7 7 8 8 9 10 11 14 11 7 5 4 8 10 6 3 4 5 6 7 7 8 8 8 9 7 8 10 8 5 5 5 3 6 7 3 4 7 7 5 4 4 6 5 6 6 6 7 8 8 7 6 7 10 11 11 11 10 10 9 10 10 10 11 12 11 10 10 11 11 12
14 15 16 15 12 11 10 9 7 7 6 6 6 6 6 6 7 7 7 7 8 9 9 11 13 10 7 2 2 5 6 4 4 4 4 5 6 6 7 6 7 8 6 7 9 9 7 5 5 4 6 7 4 4 4 3 4 8 7 8 7 8 7 7 8 7 8 7 4 5 9 10 6 2 4 7 8 10 11 10 10 10 10 10 11 12 11 12
13 14 15 14 12 10 10 9 8 7 6 6 6 6 5 5 6 7 7 7 7 8 9 11 13 10 6 1 1 7 5 5 5 3 4 4 5 5 6 5 6 6 5 6 7 8 7 5 4 1 2 5 6 7 5 2 7 11 10 9 8 8 8 7 6 6 5 6 5 4 7 9 5 1 4 7 7 8 10 10 9 9 9 10 11 12 11 11
13 14 15 13 11 9 9 9 8 7 6 6 5 5 5 5 5 6 6 6 7 8 9 11 12 8 5 3 7 8 5 5 4 3 4 3 4 4 4 4 5 5 5 5 6 7 8 6 3 2 2 3 4 6 6 6 9 11 10 8 8 8 8 6 5 4 4 4 5 1 5 6 5 4 6 6 7 8 8 8 8 8 8 9 11 11 11 11
13 13 14 13 10 8 8 8 8 7 6 5 4 4 4 4 4 4 4 5 7 8 10 12 11 6 4 5 9 6 5 5 4 4 5 4 4 4 4 4 4 4 4 4 4 6 8 7 3 4 5 3 3 6 7 7 8 8 7 6 8 8 6 5 4 6 5 4 4 3 4 4 5 6 6 6 7 8 8 7 8 7 7 8 9 10 10 10
12 12 13 13 9 6 6 7 7 7 6 5 4 4 3 3 2 3 3 5 6 7 10 10 8 6 4 6 7 5 5 4 3 3 4 3 2 2 3 4 3 3 3 3 3 4 6 6 5 5 5 4 8 9 8 7 5 5 5 5 6 5 6 5 4 6 5 4 3 4 3 4 5 6 6 7 8 7 7 7 7 7 7 7 7 8 9 9
12 11 12 12 8 4 4 6 6 7 7 6 6 4 3 2 2 2 3 4 6 8 9 8 6 5 6 8 5 4 5 4 3 3 2 2 2 1 1 2 2 2 2 1 1 3 5 5 2 4 6 8 10 8 6 4 4 5 4 4 3 3 7 6 3 4 3 4 2 4 1 4 4 8 8 7 7 7 7 6 6 6 6 6 6 7 8 9
12 10 10 11 9 4 2 4 5 5 5 6 6 6 4 3 2 2 3 4 7 8 7 7 5 4 5 9 5 3 4 4 2 2 2 2 1 1 1 1 1 2 1 1 1 3 6 5 3 6 7 7 7 4 4 4 4 4 4 4 4 4 5 6 6 5 2 4 4 3 2 2 4 8 10 8 7 7 6 6 5 5 6 6 5 5 7 8
12 9 9 10 9 5 1 1 3 4 4 5 6 7 6 4 3 3 4 6 8 7 6 6 5 5 4 7 5 3 3 3 2 2 1 0 0 0 0 0 0 1 3 3 4 5 6 4 4 6 4 3 3 2 3 3 3 3 2 3 6 6 5 5 7 7 4 2 2 2 3 3 5 8 11 9 7 6 6 6 6 5 6 6 5 5 7 8
12 9 8 9 9 6 2 1 1 2 3 5 6 8 9 8 7 6 6 6 7 4 1 4 4 6 6 5 2 3 3 2 1 1 1 1 1 2 2 2 1 2 5 5 5 6 6 5 4 3 2 2 2 3 2 1 0 3 2 3 6 7 6 5 5 6 8 4 3 3 4 4 7 7 9 9 8 6 6 5 5 6 6 6 6 6 7 8
12 10 8 8 8 7 4 2 2 2 4 6 7 9 9 8 7 4 5 6 5 3 1 4 1 0 4 4 3 4 3 3 3 2 4 3 1 2 2 2 1 3 6 5 5 4 5 6 5 4 3 3 1 1 3 4 2 2 4 4 4 6 5 3 4 3 6 7 5 4 4 3 4 5 7 8 8 7 6 5 6 6 6 6 7 6 8 9
12 10 8 7 7 6 5 3 2 3 4 6 7 7 5 5 4 1 2 3 2 3 3 4 3 3 3 3 4 4 2 3 4 3 3 4 2 1 1 1 2 4 2 0 4 2 4 4 3 1 3 2 1 2 4 3 1 3 4 4 4 4 4 5 3 1 3 7 5 3 4 3 3 2 5 7 8 7 7 7 7 7 7 7 7 8 9 9
12 10 8 7 6 6 4 4 3 4 6 6 7 4 3 4 2 1 3 1 2 2 2 2 3 2 2 2 4 5 3 1 3 3 4 6 2 3 1 1 5 4 4 1 2 2 5 3 4 5 5 3 2 0 1 1 3 4 4 4 4 3 2 6 3 2 2 5 3 2 5 5 4 3 4 7 9 9 8 8 8 8 8 8 8 8 9 10
12 10 9 7 6 5 4 4 4 5 7 7 7 5 5 5 3 3 4 1 2 2 1 2 2 2 2 2 3 4 2 2 4 3 6 6 3 3 1 2 4 2 5 3 3 3 4 2 7 5 4 1 1 2 3 3 4 4 2 1 2 3 3 5 3 2 2 4 2 2 6 4 2 3 5 8 10 9 9 9 8 9 9 9 9 9 11 11
12 10 9 7 5 4 3 3 4 5 6 7 7 6 5 5 5 4 3 1 3 3 2 1 2 3 3 3 3 3 2 1 2 3 5 6 3 3 2 2 1 2 4 3 1 1 1 5 7 4 1 2 3 3 4 4 4 3 1 1 1 4 4 3 5 3 3 3 3 3 6 4 3 4 6 9 11 9 8 10 9 9 10 10 10 10 11 13
13 10 8 6 5 4 2 1 2 2 4 6 5 5 5 6 5 3 1 2 2 4 3 4 4 4 3 2 2 2 2 2 1 2 5 5 4 2 2 2 1 4 3 1 1 1 4 7 5 1 1 3 2 5 6 4 3 2 2 2 1 4 4 0 5 5 3 4 4 5 6 5 4 6 6 7 10 10 9 10 10 10 10 10 10 11 13 15
14 10 8 6 4 3 1 1 0 2 3 4 3 4 5 6 4 2 1 3 3 4 2 4 3 4 4 2 2 3 2 1 2 4 3 3 4 3 0 1 3 2 6 2 3 1 6 5 2 2 2 3 3 4 4 3 1 2 2 3 0 6 6 2 5 6 4 5 5 6 6 3 5 6 6 5 7 9 9 10 11 10 10 11 13 14 16 17
17 12 8 5 3 2 2 1 2 2 2 1 2 4 5 4 2 1 2 4 4 3 0 2 1 3 4 3 3 3 5 2 3 4 2 2 3 4 1 1 1 3 5 1 1 1 4 3 1 3 2 3 4 3 2 3 3 2 2 1 2 6 6 3 6 6 3 0 4 5 6 2 3 6 5 5 7 8 9 10 11 10 11 13 15 17 17 18
18 13 8 5 3 0 2 3 3 1 1 1 2 3 3 3 2 1 3 4 4 2 1 2 2 3 5 5 4 5 2 3 2 2 2 1 1 4 3 2 1 4 3 3 1 2 2 2 2 2 3 5 4 1 4 4 5 2 3 3 5 6 6 4 6 5 2 2 2 6 6 5 4 3 4 6 9 9 9 10 10 10 11 14 16 17 18 19
19 13 7 4 2 1 2 4 2 0 1 2 2 2 2 2 2 1 4 2 4 2 0 3 2 3 6 5 2 3 3 3 1 3 3 2 1 4 2 3 1 4 3 5 1 5 1 1 1 1 4 4 2 6 4 3 4 4 3 4 5 5 5 4 5 5 2 3 4 5 5 6 5 2 5 5 8 8 9 9 10 12 13 14 14 15 17 19
18 13 6 3 3 2 2 3 3 3 3 2 2 2 2 1 0 3 4 1 2 0 1 2 2 3 6 3 2 1 2 2 2 4 2 1 1 3 2 5 2 3 4 6 2 5 2 2 2 3 5 2 7 8 5 5 3 5 5 4 4 4 6 4 5 4 3 5 5 2 5 5 5 1 3 4 5 5 5 5 7 12 13 14 14 15 16 18
17 11 5 2 2 2 2 2 2 3 2 2 2 1 1 1 2 4 2 2 1 1 1 2 2 4 6 3 4 1 0 1 2 2 2 1 2 1 3 5 1 2 4 4 2 5 5 2 0 2 4 4 6 6 4 5 3 5 6 5 5 4 4 4 4 4 4 5 2 1 4 5 5 2 1 1 1 3 3 0 2 7 12 13 15 16 16 16
15 8 3 2 2 2 3 2 2 2 3 4 3 1 2 2 3 3 3 1 1 2 1 1 3 4 4 2 1 1 1 3 2 3 4 3 3 4 4 3 3 4 4 4 3 5 6 5 3 2 3 1 1 3 4 2 2 4 5 4 3 3 3 4 4 4 5 3 2 2 3 6 5 3 1 2 1 2 4 2 1 3 8 12 14 15 15 16
11 5 3 3 2 2 4 3 2 2 4 4 4 3 4 3 2 1 4 2 2 2 1 1 4 4 3 1 1 2 1 2 2 2 1 2 2 2 1 1 0 3 3 2 3 5 5 4 5 4 2 2 4 3 4 4 4 5 6 4 4 4 4 4 4 4 5 1 3 1 2 4 6 5 4 5 4 3 3 4 4 3 5 8 12 14 15 15
6 3 3 4 4 4 4 4 2 3 4 4 4 4 5 2 2 2 2 2 0 3 2 2 3 4 3 3 1 3 2 1 2 1 1 2 2 2 1 2 3 4 2 1 2 3 3 5 6 5 4 2 5 5 2 3 5 5 5 4 4 4 4 5 4 4 4 1 4 1 2 5 5 3 2 4 4 4 3 4 5 4 5 6 8 12 13 13
2 3 4 6 6 6 4 3 2 3 5 5 4 4 3 1 3 1 1 3 3 1 0 2 3 2 1 1 4 3 1 2 2 2 4 4 4 3 3 3 1 4 2 1 1 2 1 3 3 1 2 2 4 4 5 4 3 3 3 5 5 4 5 5 4 5 4 3 1 2 3 4 2 2 2 3 3 4 5 5 4 4 5 6 6 8 11 13
3 5 6 7 7 7 5 3 3 4 6 5 5 4 1 2 3 2 1 4 2 0 1 1 3 4 3 3 3 3 2 2 2 2 3 2 1 0 1 3 2 3 3 2 1 0 4 1 5 4 2 1 2 0 4 6 4 1 2 6 5 3 4 3 2 4 5 5 3 3 3 4 3 3 4 5 6 5 4 4 3 3 5 8 8 8 10 12
6 6 5 6 6 6 5 3 2 5 6 5 5 2 1 2 2 2 2 2 1 2 1 3 2 2 3 3 3 3 1 0 1 3 2 1 2 3 2 3 3 3 4 2 1 1 4 1 6 4 3 1 1 1 2 5 3 1 3 4 1 2 4 4 1 1 2 6 4 2 4 4 3 2 1 2 3 1 3 2 2 3 5 8 8 9 10 11
8 6 4 5 5 5 5 2 2 5 6 5 2 2 2 3 4 3 2 1 1 2 3 2 1 3 1 2 3 4 1 2 2 3 2 2 1 3 2 2 3 4 4 4 1 1 4 1 5 3 3 4 1 3 2 2 4 4 3 1 2 0 3 4 4 2 4 6 3 2 6 5 3 1 2 1 1 2 3 2 2 3 5 7 7 7 8 9
9 7 3 3 4 5 5 2 2 5 6 4 2 3 1 2 3 3 2 1 1 2 2 2 2 2 1 1 2 4 2 2 2 2 1 2 1 3 2 2 3 4 4 5 3 1 3 3 5 4 2 5 4 5 4 3 2 4 3 1 2 4 3 3 4 4 5 6 4 4 5 4 4 2 1 1 1 2 2 1 1 3 5 6 6 7 7 8
10 6 3 1 3 5 5 3 3 6 6 3 4 3 1 3 4 2 1 0 2 2 2 4 2 1 2 2 2 4 4 3 0 1 1 0 1 3 3 2 2 4 3 5 3 1 2 4 2 5 4 3 5 6 4 3 3 2 2 3 3 4 4 4 4 4 5 6 6 6 5 4 3 0 2 2 2 3 4 3 3 1 2 4 4 5 6 7
9 5 3 1 2 4 4 4 4 5 4 1 3 4 3 4 5 3 1 1 3 3 2 3 1 1 3 3 2 3 3 3 2 1 1 1 1 3 5 4 3 4 3 2 2 0 2 3 2 3 5 4 4 1 3 4 2 3 4 4 3 2 3 4 5 4 5 7 6 6 6 4 0 2 2 3 3 3 4 5 5 4 2 2 2 2 4 5
8 4 2 2 2 3 2 3 2 1 1 3 3 5 4 2 3 4 2 0 2 3 3 2 2 2 3 2 3 3 2 1 1 1 1 1 1 3 6 5 5 4 2 2 2 1 2 3 4 3 3 4 1 5 4 5 5 5 5 5 5 4 4 5 6 5 5 6 6 6 7 5 0 1 2 2 1 2 4 5 6 5 4 2 1 2 3 4
7 2 2 2 0 2 0 1 2 1 1 3 2 3 3 2 3 4 3 2 1 1 1 1 2 2 2 2 3 3 2 1 1 1 1 2 3 3 5 5 4 3 4 2 2 2 2 3 5 6 4 2 3 4 2 1 2 4 4 4 5 5 6 7 7 4 4 6 5 6 8 5 1 3 2 1 0 2 3 5 6 6 5 4 2 3 4 5
2 1 1 2 2 2 1 2 3 1 2 3 2 2 2 1 3 4 4 2 1 1 1 1 1 1 2 2 2 2 2 2 1 1 1 2 4 5 5 4 2 2 4 1 2 2 2 3 5 6 4 1 4 4 3 4 4 4 2 2 3 5 5 5 7 6 5 6 6 6 8 5 3 5 4 3 1 2 2 3 5 6 6 5 3 3 4 5
3 5 3 0 1 1 2 2 3 3 4 3 3 5 3 2 2 2 2 2 1 1 2 2 1 1 1 2 2 3 3 1 0 2 0 1 3 4 4 3 1 2 3 2 1 0 2 2 3 6 6 3 4 4 4 4 4 3 2 1 2 4 4 5 6 6 7 10 10 8 8 4 4 5 3 3 2 3 4 2 3 5 6 6 5 3 4 6
3 4 5 4 3 2 2 3 2 3 5 4 5 5 3 3 3 3 3 3 3 1 1 2 2 1 1 0 1 2 3 3 1 1 1 1 3 4 3 2 1 2 4 3 1 1 3 2 3 6 7 5 5 4 2 2 3 4 2 2 3 4 4 5 6 6 7 10 10 9 9 6 2 5 4 4 4 6 6 4 4 5 6 7 6 6 5 7
1 1 3 4 6 6 7 5 2 2 4 4 4 2 1 3 4 2 2 2 3 2 1 2 3 3 2 1 2 0 1 2 2 1 1 1 2 4 2 1 3 4 5 3 1 1 3 3 4 6 7 7 8 7 4 4 7 7 5 5 6 5 5 6 6 7 7 8 9 9 10 12 9 7 8 8 8 8 8 9 9 8 8 8 8 8 7 7
1 1 1 2 4 6 7 5 4 3 2 1 1 1 0 3 4 2 1 1 2 1 0 1 2 3 2 2 2 1 0 1 2 2 2 2 1 2 3 3 3 4 5 4 2 2 4 5 4 5 7 8 8 7 3 3 8 9 9 9 9 7 7 7 8 9 9 8 9 9 10 12 11 10 10 9 9 9 10 12 13 12 11 11 11 11 11 9
1 2 2 2 2 2 4 4 4 4 3 1 0 1 1 2 2 1 2 1 1 2 1 1 2 2 1 1 2 1 1 2 2 2 2 3 3 1 3 5 4 5 6 5 3 2 5 6 3 4 7 8 7 7 5 5 8 9 10 11 11 10 10 10 11 12 11 11 12 12 13 13 11 10 11 11 12 13 14 15 14 14 13 13 13 13 13 12
3 4 4 3 3 3 4 3 2 3 4 2 1 2 1 2 3 2 1 1 2 1 1 2 1 0 1 2 3 2 2 2 3 2 3 4 5 4 4 3 3 4 6 5 3 2 5 4 3 4 8 8 9 9 7 8 10 10 12 13 12 13 13 13 13 13 14 15 16 16 18 17 14 12 13 14 15 14 14 14 13 13 12 10 10 11 13 13
4 4 4 4 5 5 4 1 1 2 2 1 1 2 1 1 3 3 1 2 2 1 1 2 2 2 1 2 5 4 2 3 5 4 3 4 4 4 4 4 2 3 5 4 2 3 4 2 3 4 7 8 9 8 7 9 10 11 13 14 13 13 13 13 13 12 12 14 15 16 17 15 12 12 13 12 12 12 12 13 13 12 10 9 9 9 10 11
5 6 6 4 4 3 1 1 1 2 2 1 1 2 1 2 4 2 1 2 3 3 4 5 4 3 2 3 5 4 4 5 7 6 4 5 5 4 3 4 4 4 5 5 4 3 4 3 3 4 7 8 6 6 8 9 10 13 16 15 13 11 10 10 9 8 9 11 12 12 12 9 7 6 7 8 9 10 11 11 12 12 11 10 10 10 10 10
6 6 5 2 1 1 0 1 2 2 1 2 2 2 2 3 4 3 2 2 3 5 7 6 5 4 4 3 3 4 7 8 9 8 7 7 7 7 7 6 7 7 6 6 5 5 6 6 5 5 7 7 3 3 7 9 10 10 8 5 4 5 7 8 7 7 9 9 8 7 6 6 6 5 5 7 7 8 9 10 11 12 12 11 11 11 11 10
Wind_Direction
21 19 18 18 19 22 27 32 37 46 59 79 91 98 101 95 85 80 76 71 69 67 62 53 39 25 17 12 9 13 38 52 53 53 53 54 67 98 108 104 101 95 87 81 89 110 118 152 172 177 182 185 195 178 162 165 178 202 216 220 208 198 169 141 130 92 113 141 140 139 129 116 115 104 100 109 97 96 89 74 73 73 77 88 97 115 122 117
20 19 17 18 21 23 28 33 40 51 66 90 101 101 101 93 85 82 76 72 69 65 60 48 34 24 12 6 9 36 74 67 69 61 49 67 93 105 110 102 95 85 79 72 65 143 157 144 156 167 174 179 182 173 171 169 193 222 220 222 214 168 105 81 54 56 29 103 128 132 121 107 98 99 121 131 108 112 103 86 86 86 85 93 102 114 122 121
20 19 18 18 22 25 30 34 41 54 70 98 108 104 100 90 86 83 76 73 68 64 56 40 30 19 12 18 28 87 97 87 77 52 55 88 105 109 106 94 83 72 67 54 51 137 156 133 154 169 173 174 175 181 182 176 197 222 223 228 191 138 104 84 355 9 20 12 147 140 120 99 80 81 123 132 114 110 89 85 94 96 97 102 111 115 110 113
19 20 19 19 22 27 31 34 45 56 71 103 116 108 99 90 86 82 77 74 66 60 48 35 26 21 30 38 43 112 136 127 74 47 83 103 106 102 92 78 65 50 44 36 54 104 129 142 152 163 178 168 167 184 183 178 195 195 220 247 100 132 154 97 360 346 31 185 161 143 124 95 77 68 67 127 135 100 74 75 87 102 110 111 119 120 114 118
17 20 20 20 21 27 30 36 48 56 72 104 121 111 101 92 87 86 80 72 64 54 42 32 28 33 45 41 49 155 195 165 72 76 110 105 99 88 74 61 49 40 43 50 56 75 112 150 157 159 179 154 160 186 178 174 201 192 216 296 46 354 220 77 38 355 64 149 149 143 125 100 89 67 53 58 90 81 75 90 96 101 110 115 121 118 118 128
14 18 19 19 20 26 30 38 49 58 75 104 120 115 103 93 91 90 82 72 63 51 42 34 32 40 50 53 69 127 201 103 85 120 111 98 86 72 58 51 45 46 52 52 48 58 95 170 179 155 142 138 160 182 164 173 211 222 188 167 40 356 24 60 45 45 102 141 139 130 110 106 101 78 63 63 73 86 89 99 102 99 104 113 119 116 118 129
12 15 18 19 19 24 31 39 50 62 80 103 114 114 104 98 97 91 82 72 60 49 43 34 33 39 57 73 79 89 95 90 101 117 97 81 64 55 49 51 45 48 51 40 32 50 73 143 149 133 126 123 145 151 155 172 213 248 146 135 81 45 54 58 67 84 108 117 113 115 109 106 100 88 79 76 82 96 99 101 105 107 109 106 110 118 122 127
9 13 16 17 18 22 30 40 51 66 86 102 106 108 104 101 97 90 80 69 57 48 41 33 33 37 59 84 92 93 89 84 101 103 81 56 49 45 45 45 38 45 44 36 43 41 47 83 90 117 104 99 124 138 160 175 200 236 116 130 118 86 96 85 98 104 106 107 108 110 94 83 93 95 85 84 95 100 102 103 104 111 114 109 111 123 128 125
8 11 14 16 17 20 29 40 51 70 89 99 100 103 103 101 94 85 74 64 51 44 36 31 32 34 65 93 123 100 82 65 87 85 52 40 43 39 38 30 29 41 34 38 42 28 34 56 57 40 70 92 128 137 172 199 185 169 120 134 138 115 112 107 115 111 104 104 110 109 94 91 102 100 83 85 102 107 111 109 108 110 111 114 116 125 130 123
7 9 13 15 17 20 28 38 53 74 90 96 96 100 98 94 86 78 71 57 45 41 32 28 27 35 76 123 192 104 83 63 64 52 42 40 37 35 33 21 28 38 27 35 35 30 38 36 49 79 86 92 91 106 179 234 126 133 128 122 122 117 118 121 121 112 105 97 101 110 101 107 120 122 87 99 113 119 119 115 118 115 113 120 118 122 129 126
6 8 12 15 17 22 28 37 56 74 87 91 90 92 86 82 78 71 65 48 38 30 25 23 20 39 77 329 42 93 94 75 63 49 52 44 33 33 25 21 33 34 19 26 38 38 33 31 57 143 139 105 96 91 106 112 119 134 131 116 116 124 119 120 121 118 117 89 79 105 112 119 122 62 88 111 128 132 127 124 129 125 121 128 123 125 130 128
5 5 11 15 18 27 34 42 57 71 81 84 82 82 73 72 69 58 51 38 29 20 23 16 14 48 98 65 66 87 96 83 82 79 74 61 44 41 28 30 30 25 25 23 37 39 36 54 55 358 70 133 129 101 104 120 131 140 142 126 124 133 119 115 128 133 143 90 58 131 164 136 105 92 110 130 142 140 140 141 141 140 135 134 132 131 132 132
5 3 8 15 18 33 46 48 55 66 74 75 73 72 62 60 54 45 35 20 14 13 16 9 19 63 126 94 77 79 86 86 96 97 91 84 66 61 51 41 26 24 38 25 31 35 40 64 65 52 79 102 96 106 121 129 143 149 153 150 143 148 129 120 145 142 136 92 46 269 207 121 91 113 134 156 157 154 154 149 146 151 148 138 137 136 132 134
3 1 5 11 18 37 55 52 47 51 58 63 64 63 63 57 43 32 10 4 3 6 9 8 38 86 107 94 85 79 90 87 75 76 81 79 61 52 41 33 32 26 28 21 22 24 42 71 97 95 77 81 109 123 128 137 165 149 144 174 173 162 137 126 148 151 144 110 57 291 244 117 116 131 146 165 163 170 164 151 155 159 158 142 137 142 136 131
1 1 1 8 17 33 58 54 44 45 50 56 56 55 65 63 47 14 352 1 359 360 3 12 55 114 127 108 93 81 84 60 51 43 35 59 22 348 347 358 19 19 21 20 352 27 70 88 124 111 88 110 139 146 133 137 155 154 166 174 194 183 149 149 164 163 155 140 148 287 262 115 131 142 155 170 162 176 175 161 162 160 165 153 140 147 139 132
359 359 359 6 14 20 51 55 52 49 44 43 40 38 47 46 34 356 355 357 352 357 358 18 67 156 141 111 110 94 69 46 53 4 17 50 336 291 278 331 5 21 55 168 177 94 99 103 111 118 121 140 160 166 149 147 145 187 212 153 177 201 160 164 179 182 172 155 179 255 252 120 135 151 159 170 168 177 181 169 165 165 179 177 164 157 148 144
358 355 356 4 11 11 354 41 45 41 34 26 20 21 22 17 4 346 347 340 343 351 353 23 100 164 116 112 143 108 45 1 355 324 345 12 328 12 295 85 108 81 99 122 130 128 124 126 140 139 156 187 191 199 190 184 161 188 225 158 168 167 169 179 173 183 195 201 203 227 235 150 138 155 162 174 180 186 195 184 177 184 190 189 189 174 158 154
358 352 351 359 7 8 340 281 346 355 2 360 356 359 357 351 343 332 326 327 329 315 360 62 135 168 112 120 165 28 359 344 37 325 5 8 19 60 59 108 132 154 156 146 133 161 161 156 192 175 155 196 208 226 248 334 242 184 188 191 164 154 194 199 145 168 194 218 238 224 225 164 143 158 167 177 182 188 204 199 195 197 192 190 191 178 164 162
359 350 348 353 1 6 356 326 310 330 336 332 338 343 344 339 327 319 321 316 309 279 129 78 84 249 84 84 360 358 360 40 82 76 44 32 47 64 46 70 96 184 193 176 134 171 185 167 200 201 156 180 206 286 325 347 317 198 181 205 184 170 194 169 93 130 203 230 235 233 245 180 159 169 172 180 181 189 201 204 210 202 194 190 184 180 174 172
359 352 346 346 356 2 6 8 352 354 339 334 347 343 337 325 286 218 353 306 300 345 27 36 353 352 46 46 359 6 50 66 74 71 48 41 55 173 258 346 208 190 194 275 99 120 237 201 185 62 73 77 48 350 326 328 263 181 187 199 192 203 171 131 106 113 212 245 233 242 278 254 238 203 174 180 185 197 203 208 215 208 203 196 187 186 184 180
359 355 346 341 354 356 6 24 23 18 6 5 18 22 30 2 315 18 2 223 151 15 27 5 339 358 2 357 9 23 40 129 106 68 26 30 358 242 218 250 232 182 98 40 101 145 245 226 74 37 37 46 40 36 238 186 173 181 196 191 175 216 158 126 150 136 163 246 212 219 264 241 247 252 187 187 200 207 206 214 218 209 205 202 197 194 188 181
359 357 347 339 348 352 2 26 33 27 21 32 53 73 72 38 15 11 350 180 124 58 50 17 10 42 26 30 42 29 11 173 130 77 23 15 324 304 32 236 253 102 116 181 176 167 217 99 67 39 30 79 124 178 195 152 176 193 180 243 189 153 129 129 161 137 161 236 218 233 260 244 239 260 218 206 215 213 205 215 222 212 206 202 201 196 188 181
359 357 349 340 337 351 359 19 37 31 32 53 66 66 56 24 6 18 358 271 125 94 68 57 70 59 44 51 44 17 342 316 117 77 24 6 357 359 342 264 236 137 160 201 233 190 165 68 55 33 25 197 166 175 202 158 174 208 157 276 281 141 169 169 165 176 195 243 294 276 260 256 224 239 236 228 231 224 210 216 219 216 213 205 203 199 190 185
356 355 351 340 331 349 349 8 38 24 29 49 56 37 21 6 357 29 30 275 131 103 76 84 83 49 40 46 26 356 354 4 360 26 6 358 9 340 326 7 230 185 129 56 310 8 65 57 38 12 226 250 216 184 206 193 164 199 226 272 8 159 207 220 135 167 198 225 264 267 253 235 208 226 232 223 228 228 222 223 222 219 214 204 204 206 198 190
353 353 350 340 334 347 6 75 295 325 17 31 30 6 357 5 11 65 188 229 137 110 103 103 93 48 40 15 16 338 287 88 360 348 356 360 2 331 20 17 274 163 107 128 232 103 75 60 360 284 245 258 246 197 212 262 186 158 228 293 342 170 181 139 154 181 213 208 205 238 257 220 177 216 230 213 219 223 220 227 230 220 209 203 203 205 198 193
350 352 344 341 341 348 57 147 234 308 30 32 358 347 346 5 29 66 253 216 129 88 130 113 97 57 47 9 5 285 239 125 26 353 23 75 20 326 226 145 323 89 105 190 246 75 85 83 287 286 278 242 239 207 173 277 278 143 152 241 212 185 171 168 190 205 246 161 156 221 264 300 184 209 217 224 234 228 217 225 233 222 208 203 202 203 198 193
348 350 339 343 349 17 124 195 226 3 68 226 326 338 345 354 10 19 259 199 113 31 316 74 35 35 25 348 320 272 255 77 70 73 39 344 11 301 269 126 127 111 116 248 188 107 94 124 191 261 267 233 230 163 140 249 287 71 120 202 208 203 191 190 210 225 282 6 173 214 250 289 273 199 175 221 245 243 232 227 226 221 209 197 198 204 201 195
345 347 337 341 351 103 165 203 195 133 226 247 309 324 334 342 14 290 251 161 85 343 323 61 32 24 359 338 323 303 354 12 256 109 60 304 312 285 279 67 15 121 144 262 198 102 86 288 102 258 251 236 23 45 67 271 292 85 133 219 213 220 226 219 228 239 273 284 238 202 217 265 281 147 143 205 245 252 246 235 222 219 207 191 196 204 200 195
342 343 338 344 359 56 145 174 159 201 231 245 263 289 322 328 317 256 245 104 59 265 93 31 28 19 337 305 132 15 334 322 334 73 73 353 49 317 21 75 25 125 155 269 312 97 106 356 9 296 275 360 44 43 33 325 352 98 144 203 201 229 242 237 250 258 251 263 270 207 199 254 297 284 151 191 244 267 255 229 215 218 208 191 195 202 198 194
339 341 343 8 18 57 99 133 167 198 196 200 219 261 312 229 232 231 185 85 26 109 94 334 347 336 312 248 161 109 180 97 48 107 135 119 96 42 69 93 210 192 166 239 290 96 110 112 263 300 334 27 55 64 51 8 28 132 167 182 180 204 224 232 248 264 255 248 277 258 219 254 290 286 163 131 334 328 312 231 157 210 213 202 199 198 195 194
338 343 355 38 46 82 98 125 193 170 152 178 179 160 197 204 244 238 104 86 313 78 196 322 17 343 331 306 164 107 155 118 122 196 177 162 163 154 154 159 204 223 195 195 185 138 153 175 157 92 34 14 165 128 97 79 171 203 219 210 199 201 205 227 221 223 254 250 84 56 249 256 268 260 309 348 337 296 287 296 44 202 216 213 210 203 195 194
340 351 22 53 60 100 126 162 201 154 148 164 162 188 219 202 220 56 94 177 241 41 8 14 15 353 348 308 25 44 227 121 118 232 203 185 188 130 192 287 273 232 223 182 172 173 176 149 113 118 133 247 251 206 151 162 200 237 251 237 239 240 222 237 234 229 257 275 85 84 234 252 268 273 304 330 335 320 309 304 306 286 237 221 216 214 205 197
347 21 57 70 77 96 128 161 171 155 152 155 171 209 244 221 115 56 85 155 22 30 7 331 337 337 314 252 60 38 273 97 84 214 121 237 223 112 81 6 337 285 282 94 202 205 165 124 138 171 156 186 260 251 212 189 201 229 254 256 257 264 263 264 263 261 267 52 86 102 261 264 269 284 335 6 18 13 345 313 305 284 247 229 219 217 213 204
22 84 82 81 82 87 103 135 144 158 155 162 199 215 237 153 99 80 93 83 62 59 347 322 288 271 320 21 44 18 239 106 69 206 187 217 217 169 153 124 349 295 275 190 229 283 273 137 140 207 106 164 242 276 319 308 241 240 284 283 270 271 283 285 291 294 303 339 85 167 241 275 298 13 337 310 306 293 284 281 285 263 224 213 213 209 204 201
120 110 99 89 81 79 80 102 140 162 160 181 225 220 180 108 118 163 92 73 74 161 149 277 263 224 149 89 64 25 338 94 104 196 208 236 226 124 133 105 55 311 267 236 132 317 278 108 75 54 57 277 241 288 326 288 252 233 276 266 268 290 293 294 329 329 318 307 279 204 240 286 309 312 296 287 281 266 254 251 246 222 193 191 197 197 195 196
143 125 110 90 74 66 62 75 151 165 172 205 230 197 94 52 69 102 60 39 16 358 243 194 253 251 153 120 113 97 53 261 168 200 176 79 53 47 32 55 34 319 294 303 126 204 271 124 97 106 122 68 316 174 290 289 276 194 231 252 40 15 301 284 290 66 267 276 272 233 265 275 269 264 236 273 281 197 161 187 184 162 173 184 189 191 192 194
155 146 123 88 66 50 48 49 159 164 185 221 237 71 67 48 44 65 74 39 350 320 275 188 32 328 124 124 82 78 131 193 200 237 182 134 89 54 47 64 31 328 320 327 311 296 304 227 133 151 126 95 92 223 200 283 296 267 253 356 68 358 277 276 273 250 250 270 269 255 279 287 275 224 150 200 238 101 112 132 130 147 176 188 186 183 184 186
162 158 137 82 56 39 33 29 156 170 195 212 115 76 47 87 68 67 94 66 291 280 314 50 51 328 341 122 73 47 344 239 196 240 187 155 96 32 360 68 53 4 334 310 289 121 299 280 138 140 133 121 159 219 190 149 271 292 312 353 280 266 246 232 266 277 276 284 282 265 270 274 264 252 50 28 94 40 14 39 153 175 183 192 185 176 175 180
166 166 159 86 40 28 24 59 143 188 205 181 130 120 74 97 97 83 114 300 309 312 26 45 44 340 18 3 39 50 13 356 343 242 286 319 74 37 1 10 49 37 11 309 301 113 263 292 128 142 152 163 191 225 238 179 163 217 244 229 249 286 285 269 279 288 282 284 285 281 272 261 255 40 4 346 28 359 342 337 319 291 194 200 190 175 173 184
171 184 170 134 6 11 28 84 145 202 205 128 106 122 118 108 105 86 30 322 338 351 39 60 43 76 81 57 39 46 29 27 32 321 348 28 78 74 49 13 350 23 28 297 285 165 226 274 287 161 163 209 211 202 314 312 278 240 245 241 235 247 273 279 273 263 272 279 283 286 278 269 99 78 327 326 4 349 335 330 321 323 306 240 206 191 179 189
181 200 148 164 339 17 42 99 116 226 149 106 97 116 125 114 109 113 108 108 360 13 26 39 48 62 77 85 71 46 16 54 64 356 44 58 5 68 56 11 336 345 327 228 180 307 269 257 282 275 221 241 26 46 353 319 305 290 286 283 275 263 260 266 258 240 245 265 274 280 279 280 95 106 303 325 360 334 337 331 319 319 321 310 230 236 220 209
190 207 127 178 319 47 152 122 81 316 153 115 95 102 112 116 132 137 139 153 133 58 46 26 52 63 52 54 63 43 8 42 60 10 58 57 40 46 39 7 334 308 294 276 94 38 324 274 274 277 272 289 56 56 18 275 255 269 281 292 290 277 266 264 268 264 248 254 265 272 274 279 139 141 170 168 209 327 336 322 313 320 333 338 295 265 257 241
203 356 99 183 123 86 177 144 126 167 96 81 79 91 97 116 140 148 156 167 163 129 150 144 33 38 44 33 24 24 23 18 21 46 103 105 83 61 31 12 340 290 293 296 91 79 278 273 276 273 270 202 143 132 124 156 202 228 243 302 300 283 283 286 287 293 281 264 263 262 264 262 126 129 153 160 177 279 276 293 313 321 331 341 333 293 270 260
79 58 46 322 154 166 217 141 140 140 105 103 130 121 111 78 74 114 126 106 89 143 155 118 74 28 53 14 335 7 15 346 34 63 71 163 103 82 47 25 349 344 3 7 41 25 259 280 293 280 278 251 205 186 169 183 214 261 290 354 313 290 301 294 279 275 265 263 266 264 265 267 120 135 185 194 210 268 271 278 314 317 322 335 340 328 299 282
119 81 55 40 60 119 105 69 87 126 119 128 123 114 130 111 55 31 58 77 74 54 94 106 119 145 108 85 284 9 354 333 3 66 218 184 125 114 78 53 73 72 70 70 48 318 281 293 292 282 284 281 274 282 289 283 300 299 285 259 265 278 297 293 276 261 255 263 265 255 261 274 188 174 232 269 278 285 286 283 291 300 310 321 324 320 311 293
195 131 94 64 61 77 85 70 44 110 123 132 117 95 180 142 102 52 43 77 84 68 39 107 140 169 156 206 254 288 348 334 343 320 256 208 129 122 108 94 108 114 115 117 155 258 272 269 263 276 281 283 292 309 341 333 303 292 287 272 265 272 284 283 273 264 269 278 267 252 263 276 265 246 266 287 292 293 290 285 290 295 298 305 307 305 301 288
256 61 92 100 87 89 95 80 54 80 101 129 119 89 83 137 133 131 98 60 88 115 180 134 186 208 168 199 261 287 36 284 299 310 321 309 286 128 166 183 162 155 155 160 197 230 263 262 242 259 270 277 293 304 312 299 285 285 289 282 275 272 264 260 260 266 280 283 267 265 275 276 274 275 280 289 297 298 294 292 295 296 294 294 292 286 283 275
117 84 69 107 116 96 98 74 47 75 94 50 87 114 134 136 128 119 101 92 134 180 236 191 205 243 248 246 255 238 221 247 272 299 316 302 295 281 211 194 182 188 192 193 194 229 272 268 214 234 264 271 278 277 269 267 272 276 279 278 276 268 258 255 260 266 270 266 267 281 286 279 280 289 291 295 298 296 296 297 298 293 289 289 285 273 265 260
97 105 95 99 85 54 65 63 31 84 88 64 92 89 71 120 96 62 47 213 176 161 282 257 187 319 285 256 262 267 271 280 291 315 325 310 308 308 285 239 188 199 217 218 189 217 273 264 172 221 263 268 267 268 267 267 271 273 270 269 267 265 264 263 264 267 268 267 271 280 281 277 282 289 289 291 292 291 293 294 292 288 286 287 284 271 262 258
121 122 115 113 99 74 64 75 226 170 111 84 139 93 51 65 66 52 19 298 289 43 340 304 331 360 326 254 254 266 314 312 297 312 315 293 294 299 295 301 296 238 243 254 217 206 259 257 168 225 263 266 262 262 261 265 274 277 273 271 269 268 268 265 264 265 265 267 271 274 275 276 275 275 279 284 287 287 287 286 286 286 284 282 278 275 270 266
127 128 140 141 104 70 53 106 210 215 162 160 146 108 108 64 41 11 6 10 354 26 21 341 325 310 273 242 246 271 354 330 295 301 298 277 283 290 284 301 304 283 271 274 260 231 244 250 226 244 266 273 262 249 264 278 281 275 269 265 262 265 270 271 270 262 256 266 276 271 267 273 277 277 281 284 283 282 284 290 294 293 290 282 273 270 272 271
120 121 134 150 111 82 228 143 182 228 145 86 63 82 93 62 42 342 326 94 85 48 25 346 317 286 253 237 252 325 342 318 294 296 290 272 272 273 265 265 272 274 276 277 272 263 259 263 267 258 269 285 269 225 276 289 280 274 270 243 241 283 292 284 279 262 246 253 268 266 268 300 321 316 293 286 287 295 306 314 312 304 298 288 274 266 267 271
Height
1527 1526 1525 1524 1523 1522 1521 1520 1520 1519 1518 1518 1517 1517 1517 1517 1517 1517 1517 1517 1517 1516 1516 1516 1516 1515 1515 1514 1514 1513 1513 1513 1512 1513 1513 1513 1512 1512 1512 1512 1512 1512 1512 1512 1513 1513 1513 1513 1513 1513 1515 1516 1516 1516 1517 1517 1517 1515 1512 1512 1511 1508 1506 1505 1505 1509 1511 1513 1515 1517 1517 1517 1518 1520 1521 1522 1524 1525 1527 1531 1533 1534 1535 1536 1538 1539 1539 1542
1527 1526 1525 1524 1523 1522 1521 1520 1520 1519 1519 1518 1518 1518 1517 1518 1518 1517 1518 1517 1517 1517 1517 1516 1516 1515 1515 1514 1514 1513 1513 1513 1513 1514 1513 1512 1512 1512 1513 1513 1513 1513 1513 1513 1514 1514 1514 1513 1513 1513 1514 1514 1515 1516 1516 1517 1517 1513 1510 1511 1509 1504 1506 1507 1507 1509 1510 1511 1514 1518 1519 1520 1520 1521 1522 1522 1524 1526 1527 1531 1534 1535 1537 1538 1540 1540 1540 1543
1528 1526 1525 1524 1523 1522 1521 1520 1520 1519 1519 1518 1518 1518 1518 1518 1518 1518 1518 1518 1517 1517 1517 1517 1516 1515 1515 1514 1513 1513 1513 1513 1514 1515 1514 1513 1513 1513 1514 1513 1514 1513 1513 1514 1514 1513 1513 1513 1513 1513 1513 1513 1515 1516 1515 1516 1515 1512 1512 1511 1506 1503 1507 1510 1511 1511 1513 1514 1516 1520 1521 1521 1522 1522 1523 1523 1524 1526 1527 1531 1533 1535 1539 1540 1541 1542 1542 1545
1528 1527 1525 1524 1523 1522 1521 1520 1520 1519 1519 1519 1519 1518 1518 1518 1518 1518 1518 1518 1518 1518 1517 1517 1516 1515 1514 1514 1513 1513 1513 1512 1514 1516 1515 1514 1514 1514 1514 1514 1514 1514 1514 1514 1513 1513 1513 1513 1513 1513 1513 1512 1514 1515 1514 1515 1514 1513 1512 1509 1505 1506 1509 1512 1514 1514 1516 1517 1517 1520 1521 1522 1523 1523 1524 1523 1524 1527 1531 1534 1535 1537 1540 1541 1542 1544 1543 1546
1528 1527 1525 1524 1523 1522 1521 1520 1520 1519 1519 1519 1519 1519 1519 1519 1519 1519 1519 1519 1518 1518 1518 1517 1516 1515 1514 1514 1513 1513 1511 1512 1515 1517 1516 1515 1515 1515 1515 1515 1515 1514 1514 1513 1513 1513 1513 1514 1514 1513 1511 1510 1513 1514 1512 1514 1514 1513 1511 1508 1508 1511 1511 1513 1516 1516 1518 1518 1519 1520 1521 1522 1523 1524 1526 1525 1525 1530 1535 1537 1538 1539 1540 1542 1543 1544 1545 1546
1529 1527 1526 1524 1523 1522 1521 1520 1520 1520 1519 1519 1519 1519 1519 1519 1519 1519 1519 1519 1519 1518 1518 1517 1517 1515 1515 1514 1512 1512 1511 1513 1517 1517 1516 1516 1516 1516 1516 1516 1515 1515 1514 1514 1514 1514 1513 1514 1512 1511 1509 1510 1512 1511 1511 1514 1514 1512 1511 1512 1514 1514 1513 1515 1517 1518 1519 1518 1520 1522 1523 1523 1523 1525 1528 1528 1531 1536 1538 1539 1540 1540 1541 1543 1544 1545 1545 1547
1529 1527 1526 1524 1523 1522 1521 1520 1520 1520 1519 1519 1519 1519 1519 1520 1520 1520 1520 1519 1519 1519 1518 1518 1517 1516 1515 1514 1513 1512 1512 1515 1518 1517 1517 1517 1517 1517 1516 1516 1516 1515 1515 1515 1516 1514 1514 1512 1511 1510 1508 1509 1511 1511 1512 1515 1515 1511 1510 1514 1516 1516 1517 1518 1519 1520 1520 1521 1523 1524 1524 1524 1523 1527 1530 1532 1536 1538 1539 1540 1541 1542 1543 1543 1544 1545 1546 1547
1529 1527 1526 1524 1523 1522 1521 1520 1520 1520 1520 1520 1520 1520 1520 1520 1520 1520 1520 1520 1520 1519 1519 1518 1517 1516 1516 1515 1513 1513 1514 1517 1518 1518 1518 1517 1517 1517 1517 1517 1516 1516 1516 1516 1516 1515 1514 1512 1511 1510 1508 1509 1511 1512 1513 1514 1514 1512 1511 1515 1517 1518 1519 1519 1520 1521 1522 1523 1525 1525 1525 1525 1526 1528 1531 1534 1538 1539 1540 1541 1542 1543 1544 1544 1545 1546 1546 1547
1529 1527 1526 1524 1523 1522 1521 1521 1520 1520 1520 1520 1520 1520 1520 1520 1520 1520 1520 1520 1520 1519 1519 1518 1517 1517 1516 1515 1513 1513 1517 1518 1518 1518 1518 1518 1518 1518 1517 1517 1517 1517 1517 1517 1516 1515 1514 1513 1513 1511 1509 1511 1512 1512 1513 1513 1512 1512 1514 1516 1517 1518 1520 1520 1521 1522 1523 1524 1525 1524 1525 1527 1529 1530 1533 1537 1539 1540 1541 1542 1543 1543 1544 1545 1545 1546 1547 1547
1528 1527 1526 1524 1523 1522 1521 1521 1520 1520 1520 1520 1520 1520 1520 1520 1520 1521 1521 1520 1520 1520 1519 1518 1518 1517 1516 1516 1513 1513 1518 1519 1518 1518 1518 1518 1518 1518 1518 1518 1518 1517 1518 1518 1517 1516 1515 1514 1514 1513 1512 1512 1513 1513 1514 1513 1512 1514 1516 1517 1518 1519 1520 1522 1522 1523 1523 1524 1525 1524 1525 1528 1530 1530 1533 1538 1540 1540 1541 1542 1543 1543 1544 1545 1545 1546 1547 1548
1528 1527 1526 1524 1523 1522 1522 1521 1521 1521 1521 1521 1520 1520 1520 1520 1521 1521 1521 1521 1520 1520 1519 1519 1518 1517 1516 1515 1513 1515 1519 1519 1518 1519 1518 1518 1518 1518 1518 1518 1518 1518 1518 1518 1518 1517 1516 1515 1514 1514 1512 1512 1514 1514 1515 1515 1514 1515 1516 1518 1520 1520 1521 1523 1523 1524 1523 1524 1526 1525 1525 1528 1530 1530 1534 1539 1540 1540 1541 1542 1543 1543 1544 1545 1545 1547 1547 1548
1528 1527 1526 1524 1523 1522 1522 1522 1521 1521 1521 1521 1521 1521 1521 1520 1521 1521 1521 1521 1520 1520 1519 1519 1518 1517 1517 1515 1515 1518 1520 1519 1519 1519 1518 1518 1518 1518 1518 1518 1518 1518 1518 1518 1518 1517 1516 1515 1514 1513 1513 1513 1514 1515 1516 1516 1516 1517 1516 1519 1521 1520 1522 1525 1525 1525 1524 1525 1526 1526 1526 1527 1530 1534 1538 1540 1541 1541 1541 1542 1542 1543 1544 1545 1545 1547 1548 1549
1528 1527 1526 1524 1523 1523 1522 1522 1522 1522 1521 1521 1521 1521 1521 1521 1521 1521 1521 1520 1520 1520 1519 1519 1518 1518 1517 1516 1518 1519 1519 1519 1519 1519 1519 1519 1518 1518 1519 1518 1518 1518 1518 1518 1518 1518 1516 1515 1515 1515 1514 1513 1514 1515 1517 1517 1517 1517 1515 1517 1520 1521 1523 1525 1525 1525 1525 1526 1527 1527 1527 1529 1532 1536 1539 1541 1540 1541 1541 1541 1542 1543 1544 1545 1546 1547 1548 1549
1528 1527 1526 1525 1524 1523 1523 1522 1522 1522 1522 1522 1521 1521 1521 1521 1520 1520 1520 1520 1520 1520 1519 1519 1518 1518 1517 1517 1520 1520 1519 1519 1519 1519 1519 1519 1519 1519 1519 1518 1518 1518 1518 1518 1518 1518 1517 1516 1515 1516 1515 1514 1515 1516 1516 1518 1517 1516 1519 1519 1516 1520 1526 1525 1524 1524 1525 1527 1528 1527 1526 1529 1534 1536 1539 1541 1540 1540 1540 1541 1542 1543 1545 1545 1547 1548 1548 1549
1527 1526 1526 1525 1524 1523 1523 1523 1522 1522 1522 1522 1521 1521 1521 1521 1520 1520 1520 1520 1520 1520 1520 1519 1518 1518 1517 1519 1520 1520 1520 1520 1519 1519 1519 1519 1519 1519 1519 1518 1518 1518 1518 1518 1517 1518 1517 1516 1516 1515 1516 1516 1516 1515 1516 1516 1515 1515 1522 1525 1519 1521 1526 1526 1525 1524 1524 1526 1528 1528 1526 1529 1534 1536 1539 1540 1540 1540 1540 1541 1542 1543 1545 1546 1547 1548 1549 1550
1527 1526 1525 1525 1524 1523 1523 1523 1523 1522 1522 1522 1521 1521 1521 1521 1520 1520 1520 1520 1520 1520 1519 1519 1519 1517 1516 1518 1520 1520 1520 1520 1519 1519 1519 1519 1519 1519 1519 1518 1518 1517 1517 1517 1517 1518 1517 1517 1517 1517 1517 1516 1514 1512 1514 1516 1518 1515 1515 1526 1531 1527 1527 1528 1526 1525 1525 1525 1525 1526 1526 1529 1533 1534 1538 1539 1539 1540 1539 1541 1543 1544 1545 1546 1548 1548 1549 1550
1527 1526 1525 1524 1524 1523 1523 1523 1522 1522 1522 1522 1521 1521 1521 1520 1520 1520 1520 1520 1519 1519 1519 1519 1519 1517 1516 1518 1520 1519 1520 1520 1519 1519 1518 1518 1518 1518 1518 1518 1518 1517 1517 1517 1518 1518 1518 1518 1517 1516 1515 1514 1511 1510 1516 1520 1520 1516 1512 1522 1530 1528 1531 1532 1527 1525 1525 1525 1525 1524 1525 1529 1532 1533 1535 1537 1537 1538 1538 1540 1543 1544 1545 1546 1547 1548 1549 1550
1527 1526 1525 1524 1523 1523 1523 1522 1522 1522 1522 1522 1521 1521 1520 1520 1520 1520 1519 1519 1519 1519 1519 1519 1518 1518 1518 1519 1519 1519 1520 1519 1519 1518 1518 1518 1518 1518 1517 1518 1517 1517 1517 1516 1517 1517 1517 1517 1515 1514 1514 1515 1513 1513 1520 1522 1516 1516 1517 1520 1522 1525 1533 1531 1525 1525 1525 1525 1526 1524 1524 1525 1529 1531 1533 1535 1536 1537 1538 1540 1542 1544 1545 1546 1547 1548 1549 1550
1527 1525 1524 1524 1523 1523 1522 1522 1522 1522 1521 1521 1521 1520 1519 1519 1519 1519 1519 1519 1519 1517 1517 1518 1518 1518 1518 1519 1519 1520 1519 1518 1518 1518 1518 1517 1517 1517 1517 1517 1517 1516 1514 1512 1514 1515 1514 1515 1514 1513 1514 1515 1514 1514 1517 1515 1511 1513 1516 1517 1519 1523 1529 1527 1524 1524 1525 1526 1525 1524 1523 1522 1526 1529 1531 1533 1534 1536 1538 1539 1542 1543 1544 1546 1547 1548 1549 1550
1526 1525 1524 1523 1523 1522 1522 1522 1522 1521 1521 1521 1520 1520 1519 1519 1517 1517 1519 1519 1518 1517 1517 1519 1519 1518 1518 1519 1520 1519 1518 1518 1518 1518 1518 1517 1517 1517 1517 1516 1515 1513 1512 1510 1512 1515 1513 1512 1512 1511 1512 1514 1514 1514 1514 1512 1511 1512 1514 1516 1517 1520 1522 1524 1527 1526 1525 1527 1524 1523 1525 1524 1525 1526 1528 1532 1534 1535 1536 1538 1540 1542 1544 1545 1546 1547 1548 1549
1526 1525 1524 1523 1523 1522 1522 1522 1521 1521 1521 1520 1520 1520 1520 1520 1518 1517 1519 1519 1519 1519 1519 1519 1519 1519 1519 1519 1519 1519 1518 1518 1518 1518 1518 1517 1517 1516 1515 1515 1512 1510 1513 1514 1513 1514 1512 1510 1512 1513 1514 1515 1516 1516 1515 1514 1513 1513 1514 1515 1518 1522 1522 1523 1528 1527 1526 1528 1525 1525 1526 1524 1525 1526 1527 1530 1532 1533 1534 1536 1538 1540 1542 1544 1544 1546 1547 1549
1526 1525 1523 1523 1523 1522 1522 1521 1521 1521 1520 1520 1520 1520 1521 1521 1520 1520 1519 1518 1518 1519 1519 1519 1519 1519 1519 1519 1519 1518 1518 1516 1516 1518 1517 1517 1516 1515 1514 1513 1511 1510 1513 1514 1512 1514 1512 1511 1516 1518 1517 1518 1518 1516 1515 1515 1515 1514 1514 1516 1518 1521 1523 1525 1526 1525 1527 1528 1525 1525 1526 1523 1524 1525 1526 1527 1528 1530 1533 1535 1536 1538 1540 1541 1543 1544 1545 1547
1526 1524 1523 1523 1522 1522 1522 1521 1521 1521 1521 1521 1521 1521 1521 1520 1520 1520 1520 1518 1518 1519 1520 1519 1519 1520 1519 1519 1519 1518 1517 1516 1516 1517 1517 1517 1516 1516 1514 1512 1512 1512 1513 1511 1510 1513 1514 1514 1518 1520 1519 1518 1518 1518 1516 1515 1516 1514 1516 1520 1520 1518 1523 1526 1526 1526 1527 1526 1525 1527 1526 1522 1523 1525 1524 1525 1526 1527 1531 1533 1535 1536 1537 1538 1540 1542 1543 1545
1525 1524 1523 1522 1522 1522 1521 1521 1522 1521 1521 1521 1521 1521 1520 1520 1520 1519 1519 1518 1517 1518 1520 1519 1519 1520 1520 1519 1519 1518 1517 1517 1517 1517 1518 1518 1517 1516 1515 1514 1513 1512 1513 1513 1512 1512 1515 1518 1520 1520 1520 1518 1518 1518 1515 1514 1516 1516 1516 1519 1520 1519 1521 1521 1523 1527 1527 1527 1527 1528 1528 1523 1520 1524 1522 1521 1524 1526 1529 1531 1532 1534 1535 1537 1538 1540 1542 1543
1524 1524 1523 1522 1522 1521 1521 1522 1521 1521 1522 1521 1521 1521 1520 1520 1519 1519 1520 1518 1517 1518 1518 1519 1519 1519 1520 1519 1519 1519 1517 1518 1518 1517 1518 1518 1518 1516 1515 1515 1514 1512 1515 1516 1513 1512 1516 1520 1520 1520 1520 1518 1517 1516 1514 1514 1516 1519 1518 1516 1518 1519 1520 1520 1523 1527 1530 1531 1526 1526 1535 1529 1517 1520 1520 1518 1521 1523 1526 1528 1529 1531 1533 1534 1536 1537 1539 1541
1524 1523 1522 1522 1521 1520 1521 1521 1521 1522 1521 1522 1522 1520 1520 1520 1519 1520 1518 1515 1518 1519 1518 1518 1519 1519 1519 1519 1519 1519 1517 1517 1518 1518 1518 1518 1518 1517 1515 1515 1513 1514 1517 1515 1513 1513 1516 1520 1520 1520 1519 1518 1517 1515 1515 1515 1517 1522 1520 1516 1517 1517 1519 1523 1524 1526 1529 1530 1525 1524 1535 1533 1519 1516 1516 1516 1518 1519 1522 1525 1525 1527 1529 1531 1533 1534 1536 1538
1524 1523 1522 1521 1521 1520 1521 1521 1521 1522 1521 1522 1521 1520 1521 1519 1519 1520 1518 1521 1526 1522 1518 1518 1519 1519 1519 1519 1518 1518 1519 1518 1517 1518 1518 1518 1519 1517 1515 1514 1514 1516 1517 1516 1519 1519 1517 1519 1520 1520 1519 1517 1515 1514 1515 1515 1518 1523 1520 1517 1518 1517 1520 1523 1523 1526 1524 1524 1526 1523 1527 1533 1525 1515 1513 1515 1517 1517 1518 1520 1521 1523 1525 1528 1530 1532 1533 1535
1523 1522 1521 1521 1520 1520 1520 1520 1521 1521 1521 1521 1520 1520 1521 1519 1521 1519 1520 1534 1536 1522 1519 1520 1519 1520 1520 1519 1518 1517 1518 1518 1517 1518 1519 1518 1519 1516 1514 1514 1514 1516 1517 1517 1521 1521 1518 1519 1520 1520 1519 1515 1513 1514 1516 1516 1518 1521 1521 1519 1518 1518 1519 1519 1522 1524 1522 1525 1530 1523 1524 1534 1528 1512 1511 1516 1516 1516 1515 1515 1517 1518 1521 1526 1529 1530 1531 1532
1522 1521 1520 1520 1520 1520 1520 1520 1521 1521 1521 1520 1520 1521 1519 1519 1522 1516 1520 1538 1533 1519 1521 1521 1518 1521 1520 1518 1518 1518 1517 1517 1517 1518 1518 1518 1518 1517 1515 1516 1517 1517 1518 1517 1516 1517 1520 1521 1520 1520 1517 1514 1516 1519 1519 1519 1519 1520 1521 1520 1519 1520 1519 1519 1522 1522 1523 1532 1533 1523 1523 1534 1530 1512 1509 1516 1515 1513 1510 1509 1512 1514 1517 1522 1527 1530 1531 1530
1522 1520 1520 1520 1520 1520 1520 1520 1520 1520 1520 1520 1520 1520 1519 1520 1520 1521 1532 1538 1527 1520 1522 1520 1519 1521 1519 1517 1517 1517 1517 1517 1518 1518 1519 1519 1518 1518 1518 1519 1518 1516 1517 1517 1515 1516 1520 1522 1521 1521 1519 1518 1519 1522 1522 1522 1521 1520 1520 1519 1520 1520 1518 1520 1521 1520 1529 1537 1531 1523 1520 1529 1534 1517 1506 1511 1512 1509 1508 1507 1509 1512 1514 1517 1522 1526 1529 1530
1521 1520 1520 1519 1519 1520 1520 1520 1520 1520 1520 1520 1520 1519 1520 1519 1516 1525 1539 1534 1523 1522 1521 1519 1520 1519 1518 1518 1516 1516 1516 1517 1518 1517 1517 1517 1517 1517 1518 1519 1518 1517 1517 1516 1516 1518 1519 1521 1520 1520 1522 1521 1520 1521 1522 1523 1523 1521 1518 1517 1522 1525 1524 1526 1525 1526 1538 1539 1528 1523 1520 1526 1534 1520 1504 1505 1507 1507 1508 1508 1509 1511 1512 1514 1517 1520 1524 1528
1521 1520 1520 1519 1519 1519 1519 1520 1519 1520 1520 1519 1520 1520 1519 1521 1522 1527 1531 1527 1526 1526 1521 1522 1522 1519 1520 1519 1517 1518 1517 1517 1518 1516 1516 1515 1515 1516 1518 1517 1517 1520 1521 1517 1518 1519 1516 1516 1518 1521 1523 1522 1520 1519 1520 1522 1522 1521 1517 1518 1529 1534 1533 1536 1535 1533 1537 1533 1525 1523 1525 1528 1528 1514 1504 1505 1504 1505 1508 1508 1509 1511 1512 1513 1515 1517 1519 1523
1521 1520 1520 1519 1519 1519 1519 1519 1519 1520 1520 1519 1521 1519 1517 1525 1532 1530 1524 1524 1529 1527 1523 1525 1523 1520 1520 1518 1519 1520 1518 1518 1518 1517 1518 1517 1516 1518 1520 1520 1518 1521 1523 1520 1521 1521 1518 1518 1518 1521 1522 1521 1521 1519 1519 1520 1519 1519 1518 1520 1531 1536 1538 1543 1539 1533 1533 1529 1523 1523 1527 1529 1521 1509 1505 1506 1506 1507 1509 1510 1511 1512 1513 1514 1514 1516 1518 1521
1521 1520 1521 1520 1519 1519 1519 1519 1519 1519 1519 1520 1520 1518 1521 1529 1533 1528 1523 1524 1526 1525 1524 1525 1523 1521 1520 1519 1521 1520 1519 1520 1518 1518 1518 1516 1517 1518 1519 1521 1520 1519 1519 1521 1524 1523 1526 1528 1523 1520 1521 1521 1520 1518 1518 1517 1515 1516 1515 1517 1525 1529 1535 1541 1537 1534 1534 1530 1525 1526 1530 1528 1520 1512 1506 1505 1506 1508 1509 1510 1511 1512 1513 1514 1515 1516 1518 1520
1521 1521 1521 1520 1520 1520 1519 1519 1519 1519 1520 1520 1517 1518 1525 1530 1527 1524 1524 1524 1523 1524 1524 1524 1522 1521 1519 1520 1522 1521 1521 1521 1518 1518 1518 1516 1517 1518 1518 1520 1521 1520 1518 1522 1525 1524 1527 1528 1522 1521 1522 1520 1520 1520 1519 1519 1519 1518 1515 1518 1523 1521 1523 1532 1537 1536 1536 1534 1529 1526 1525 1516 1509 1507 1502 1503 1505 1504 1507 1509 1509 1511 1512 1513 1515 1515 1517 1519
1521 1521 1521 1521 1520 1520 1519 1519 1519 1518 1520 1518 1517 1520 1523 1524 1522 1522 1525 1524 1524 1525 1524 1524 1522 1520 1520 1520 1520 1520 1521 1521 1518 1518 1518 1518 1520 1521 1521 1522 1522 1522 1519 1521 1524 1525 1527 1526 1520 1521 1523 1521 1522 1522 1520 1522 1523 1521 1520 1521 1520 1517 1518 1529 1538 1536 1537 1541 1531 1522 1520 1511 1506 1507 1503 1503 1504 1502 1505 1507 1507 1510 1511 1512 1513 1514 1515 1517
1521 1521 1521 1521 1521 1520 1519 1519 1518 1519 1519 1516 1519 1523 1522 1522 1523 1522 1524 1526 1525 1525 1523 1525 1526 1525 1523 1522 1521 1520 1519 1520 1519 1517 1518 1521 1523 1524 1524 1523 1524 1524 1521 1521 1523 1523 1526 1525 1520 1520 1522 1523 1524 1523 1520 1521 1521 1520 1522 1520 1517 1518 1519 1525 1537 1538 1537 1540 1529 1520 1522 1517 1514 1515 1505 1501 1504 1503 1503 1504 1506 1508 1510 1511 1512 1513 1514 1515
1520 1521 1521 1521 1520 1520 1519 1519 1518 1518 1518 1516 1522 1527 1523 1522 1525 1524 1525 1526 1525 1524 1522 1525 1528 1528 1526 1524 1524 1521 1519 1520 1520 1517 1519 1521 1525 1527 1525 1524 1525 1524 1524 1524 1523 1523 1525 1526 1521 1518 1521 1523 1522 1522 1522 1521 1519 1519 1519 1518 1519 1527 1528 1527 1535 1539 1539 1540 1532 1522 1521 1517 1514 1512 1505 1503 1506 1505 1504 1504 1504 1506 1507 1509 1510 1511 1513 1514
1520 1521 1521 1521 1520 1520 1518 1518 1518 1518 1516 1516 1522 1526 1524 1523 1526 1526 1527 1527 1525 1523 1524 1526 1528 1527 1527 1526 1525 1522 1521 1523 1521 1519 1521 1523 1526 1528 1526 1526 1525 1525 1525 1524 1523 1523 1525 1529 1526 1519 1518 1521 1520 1520 1522 1521 1519 1518 1518 1517 1518 1524 1527 1525 1527 1530 1534 1538 1533 1525 1522 1516 1507 1503 1504 1506 1505 1505 1506 1505 1504 1505 1506 1508 1509 1511 1513 1513
1520 1520 1520 1520 1520 1519 1518 1518 1518 1517 1516 1517 1520 1522 1523 1524 1526 1527 1528 1527 1526 1525 1526 1527 1526 1526 1527 1526 1525 1524 1524 1524 1522 1521 1522 1524 1526 1528 1528 1528 1526 1525 1526 1525 1524 1524 1524 1528 1529 1520 1516 1520 1520 1519 1520 1520 1520 1519 1519 1520 1521 1522 1523 1524 1522 1520 1525 1531 1531 1531 1529 1515 1501 1500 1504 1505 1505 1506 1507 1506 1506 1506 1507 1508 1510 1511 1512 1513
1520 1518 1519 1520 1519 1519 1519 1518 1518 1517 1517 1519 1521 1521 1524 1525 1526 1528 1528 1528 1528 1527 1527 1527 1526 1526 1527 1526 1526 1526 1524 1523 1523 1523 1523 1523 1526 1528 1529 1530 1529 1527 1527 1524 1524 1526 1526 1526 1527 1523 1520 1520 1520 1520 1522 1522 1522 1521 1520 1519 1520 1521 1524 1531 1529 1519 1518 1524 1524 1528 1530 1514 1499 1501 1504 1504 1505 1506 1506 1507 1507 1507 1508 1509 1510 1511 1512 1512
1519 1517 1518 1519 1519 1519 1518 1518 1520 1520 1518 1520 1522 1523 1524 1525 1525 1527 1528 1528 1528 1528 1528 1528 1527 1527 1527 1526 1527 1526 1525 1525 1524 1524 1525 1525 1526 1528 1530 1531 1531 1529 1527 1525 1525 1528 1528 1525 1525 1525 1521 1520 1521 1522 1523 1524 1523 1522 1522 1519 1519 1520 1521 1529 1531 1521 1518 1520 1517 1520 1527 1514 1498 1500 1505 1505 1506 1506 1507 1508 1507 1507 1508 1509 1509 1510 1510 1511
1519 1518 1519 1519 1519 1519 1518 1518 1521 1520 1519 1522 1524 1524 1525 1526 1525 1525 1526 1527 1527 1527 1528 1529 1529 1529 1529 1528 1528 1527 1527 1528 1527 1525 1526 1526 1526 1529 1530 1530 1530 1528 1527 1526 1527 1530 1531 1527 1528 1526 1519 1518 1521 1522 1523 1524 1522 1522 1522 1521 1522 1522 1521 1523 1524 1521 1523 1523 1518 1523 1527 1512 1499 1501 1505 1505 1506 1507 1507 1508 1507 1508 1508 1508 1509 1509 1510 1510
1520 1520 1520 1519 1519 1518 1517 1518 1520 1520 1522 1524 1524 1525 1526 1526 1526 1525 1525 1526 1526 1527 1527 1528 1529 1530 1530 1529 1529 1528 1529 1532 1530 1527 1526 1526 1527 1530 1531 1530 1529 1528 1528 1528 1529 1531 1532 1529 1531 1532 1529 1528 1528 1527 1527 1524 1522 1522 1522 1523 1525 1523 1524 1525 1522 1522 1527 1522 1517 1525 1524 1508 1501 1504 1503 1503 1505 1505 1506 1507 1507 1508 1508 1508 1509 1509 1509 1510
1520 1520 1521 1520 1519 1519 1518 1519 1520 1520 1523 1524 1524 1525 1526 1526 1527 1527 1526 1527 1527 1527 1527 1528 1529 1529 1529 1530 1531 1530 1530 1531 1531 1528 1527 1526 1526 1529 1531 1530 1529 1528 1529 1531 1530 1530 1531 1530 1531 1535 1539 1540 1537 1534 1533 1529 1524 1522 1522 1525 1526 1524 1526 1528 1524 1525 1527 1519 1515 1522 1519 1505 1500 1503 1502 1502 1503 1503 1504 1506 1506 1507 1507 1508 1508 1508 1509 1509
1520 1519 1520 1521 1521 1520 1521 1522 1521 1521 1522 1524 1526 1527 1526 1526 1528 1528 1528 1528 1528 1529 1528 1528 1529 1529 1530 1531 1531 1531 1530 1530 1531 1529 1527 1526 1526 1528 1530 1530 1530 1529 1530 1531 1530 1530 1529 1529 1529 1532 1535 1534 1531 1529 1530 1530 1528 1526 1525 1525 1525 1525 1527 1528 1528 1527 1523 1519 1517 1515 1511 1507 1504 1503 1503 1503 1503 1503 1504 1504 1504 1505 1506 1507 1507 1508 1508 1507
1519 1520 1521 1521 1522 1522 1522 1523 1523 1522 1523 1524 1527 1528 1527 1526 1527 1528 1528 1528 1529 1529 1529 1528 1528 1529 1530 1531 1531 1532 1531 1531 1531 1530 1529 1527 1526 1527 1529 1530 1530 1530 1529 1530 1530 1529 1528 1528 1529 1531 1531 1527 1525 1526 1528 1530 1530 1528 1526 1526 1524 1525 1527 1528 1530 1525 1521 1525 1522 1510 1506 1511 1508 1503 1503 1504 1504 1504 1503 1503 1504 1505 1505 1506 1506 1506 1506 1506
1520 1522 1523 1523 1522 1522 1523 1524 1525 1524 1525 1525 1527 1529 1528 1527 1527 1529 1529 1528 1528 1529 1529 1529 1529 1528 1529 1530 1531 1531 1532 1532 1532 1530 1530 1529 1527 1527 1527 1527 1529 1529 1529 1529 1529 1527 1527 1528 1528 1530 1530 1526 1525 1525 1526 1528 1529 1526 1526 1526 1524 1524 1525 1527 1527 1522 1520 1525 1521 1510 1509 1511 1507 1504 1504 1504 1504 1504 1503 1503 1504 1504 1504 1504 1503 1503 1503 1503
1521 1523 1524 1524 1524 1524 1525 1527 1527 1525 1525 1526 1527 1529 1529 1528 1529 1530 1530 1529 1529 1528 1529 1530 1530 1529 1528 1529 1529 1530 1531 1533 1534 1532 1531 1531 1531 1530 1528 1527 1528 1528 1527 1527 1528 1528 1527 1526 1526 1529 1530 1526 1524 1523 1524 1527 1527 1525 1524 1523 1521 1520 1520 1521 1522 1520 1519 1519 1516 1513 1513 1510 1506 1505 1504 1503 1504 1503 1503 1503 1503 1502 1502 1501 1501 1501 1500 1500
1522 1523 1524 1524 1525 1526 1527 1528 1527 1525 1525 1526 1527 1529 1530 1529 1530 1531 1530 1530 1531 1529 1529 1530 1530 1529 1529 1529 1529 1529 1530 1531 1533 1532 1532 1533 1532 1531 1531 1529 1527 1528 1527 1527 1527 1529 1529 1527 1527 1528 1530 1527 1521 1520 1523 1525 1526 1525 1523 1519 1518 1517 1516 1517 1518 1518 1519 1518 1515 1515 1515 1510 1504 1503 1502 1503 1503 1503 1502 1501 1500 1499 1499 1499 1499 1499 1498 1499
1523 1523 1524 1523 1525 1527 1528 1527 1526 1524 1524 1526 1527 1529 1531 1531 1532 1532 1531 1531 1532 1532 1532 1532 1531 1530 1530 1530 1529 1529 1529 1531 1531 1530 1530 1531 1531 1530 1530 1529 1528 1528 1528 1528 1528 1529 1529 1529 1527 1529 1532 1525 1518 1520 1523 1523 1523 1524 1520 1517 1516 1515 1514 1514 1514 1515 1517 1517 1516 1516 1515 1507 1499 1499 1501 1502 1502 1501 1499 1498 1498 1498 1498 1498 1498 1497 1497 1497
1523 1524 1524 1524 1525 1528 1528 1526 1526 1525 1525 1528 1529 1530 1532 1532 1533 1533 1533 1532 1533 1534 1534 1534 1532 1530 1529 1530 1530 1530 1531 1531 1530 1530 1529 1529 1528 1528 1528 1528 1527 1527 1526 1527 1528 1527 1527 1527 1525 1528 1531 1524 1518 1523 1524 1523 1526 1521 1510 1508 1512 1513 1513 1512 1511 1512 1513 1515 1516 1514 1509 1501 1498 1500 1502 1501 1499 1499 1498 1497 1498 1497 1496 1496 1496 1495 1495 1495